YACHTS Weather Reports


time (UTC)temp
C
wind
direction
speed
KPH
gust
KPH
rain 1hr
cm
rain 24hr
cm
rain mn
cm
humidity
%
barometer
mb
20260507060853 10 0 0.0 0.0 0.00 0.00 0.00 88 1021.9
20260507060340 10 0 0.0 0.0 0.00 0.00 0.00 88 1021.9
20260507055827 10 0 0.0 0.0 0.00 0.00 0.00 88 1022.0
20260507055314 10 0 0.0 0.0 0.00 0.00 0.00 88 1022.0
20260507054803 10 0 0.0 0.0 0.00 0.00 0.00 88 1022.0
20260507054249 10 0 0.0 0.0 0.00 0.00 0.00 88 1022.0
20260507053735 10 0 0.0 0.0 0.00 0.00 0.00 88 1022.1
20260507053222 10 0 0.0 0.0 0.00 0.00 0.00 88 1022.1
20260507052709 10 0 0.0 0.0 0.00 0.00 0.00 88 1022.1
20260507052156 10 0 0.0 0.0 0.00 0.00 0.00 88 1022.1
20260507051643 10 0 0.0 0.0 0.00 0.00 0.00 88 1022.1
20260507051130 10 0 0.0 0.0 0.00 0.00 0.00 87 1022.1
20260507050619 10 0 0.0 0.0 0.00 0.00 0.00 87 1022.1
20260507050104 10 0 0.0 0.0 0.00 0.00 0.00 87 1022.2
20260507045551 10 0 0.0 0.0 0.00 0.00 0.00 87 1022.1
20260507045038 10 0 0.0 0.0 0.00 0.00 0.00 87 1022.1
20260507044525 10 0 0.0 0.0 0.00 0.00 0.00 87 1022.1
20260507044012 10 0 0.0 0.0 0.00 0.00 0.00 87 1022.1
20260507043459 11 0 0.0 0.0 0.00 0.00 0.00 87 1022.1
20260507042433 11 0 0.0 0.0 0.00 0.00 0.00 87 1022.0
20260507041920 11 0 0.0 0.0 0.00 0.00 0.00 87 1022.0
20260507041407 11 0 0.0 0.0 0.00 0.00 0.00 87 1022.0
20260507040854 11 0 0.0 0.0 0.00 0.00 0.00 87 1022.0
20260507040341 11 0 0.0 0.0 0.00 0.00 0.00 87 1022.0
20260507035828 11 0 0.0 0.0 0.00 0.00 0.00 87 1022.0
20260507035315 11 0 0.0 0.0 0.00 0.00 0.00 87 1021.9
20260507034802 11 0 0.0 0.0 0.00 0.00 0.00 87 1022.0
20260507034249 11 0 0.0 0.0 0.00 0.00 0.00 87 1022.0
20260507033736 11 0 0.0 0.0 0.00 0.00 0.00 87 1022.0
20260507033223 11 0 0.0 0.0 0.00 0.00 0.00 87 1022.0
20260507032710 11 0 0.0 0.0 0.00 0.00 0.00 87 1022.0
20260507032157 11 0 0.0 0.0 0.00 0.00 0.00 87 1022.0
20260507031644 11 0 0.0 0.0 0.00 0.00 0.00 87 1021.9
20260507031131 11 0 0.0 0.0 0.00 0.00 0.00 87 1021.9
20260507030618 11 0 0.0 0.0 0.00 0.00 0.00 87 1021.8
20260507030105 11 0 0.0 0.0 0.00 0.00 0.00 87 1021.8
20260507025552 11 0 0.0 0.0 0.00 0.00 0.00 87 1021.8
20260507025039 11 0 0.0 0.0 0.00 0.00 0.00 87 1021.8
20260507024526 11 0 0.0 0.0 0.00 0.00 0.00 87 1021.8
20260507024015 11 0 0.0 0.0 0.00 0.00 0.00 87 1021.7
20260507023500 11 0 0.0 0.0 0.00 0.00 0.00 87 1021.7
20260507022947 11 0 0.0 0.0 0.00 0.00 0.00 87 1021.8
20260507022434 11 0 0.0 0.0 0.00 0.00 0.00 87 1021.6
20260507021921 11 0 0.0 0.0 0.00 0.00 0.00 87 1021.7
20260507021408 11 0 0.0 0.0 0.00 0.00 0.00 87 1021.7
20260507020855 11 0 0.0 0.0 0.00 0.00 0.00 87 1021.7
20260507020342 11 0 0.0 0.0 0.00 0.00 0.00 87 1021.8
20260507015829 11 0 0.0 0.0 0.00 0.00 0.00 87 1021.9
20260507015316 11 0 0.0 0.0 0.00 0.00 0.00 87 1021.9
20260507014803 11 0 0.0 0.0 0.00 0.00 0.00 87 1022.0
20260507014250 11 0 0.0 0.0 0.00 0.00 0.00 87 1022.0
20260507013737 11 0 0.0 0.0 0.00 0.00 0.00 87 1022.0
20260507013224 11 0 0.0 0.0 0.00 0.00 0.00 87 1022.0
20260507012711 11 0 0.0 0.0 0.00 0.00 0.00 87 1022.1
20260507012158 11 0 0.0 0.0 0.00 0.00 0.00 87 1022.1
20260507011132 11 0 0.0 3.2 0.00 0.00 0.00 86 1022.1
20260507010619 11 0 0.0 3.2 0.00 0.00 0.00 87 1022.1
20260507010106 11 266 0.0 3.2 0.00 0.00 0.00 87 1022.2
20260507005553 11 0 0.0 0.0 0.00 0.00 0.00 87 1022.1
20260507004015 10 0 0.0 0.0 0.00 0.00 0.00 87 1022.3
20260507003501 11 0 0.0 6.4 0.00 0.00 0.00 86 1022.3
20260507002949 10 0 0.0 6.4 0.00 0.00 0.00 86 1022.3
20260507002435 10 261 0.0 6.4 0.00 0.00 0.00 86 1022.2
20260507001922 10 0 0.0 0.0 0.00 0.00 0.00 87 1022.2
20260507001409 11 0 0.0 0.0 0.00 0.00 0.00 86 1022.3
20260507000856 11 0 0.0 0.0 0.00 0.00 0.00 86 1022.2
20260507000343 10 0 0.0 6.4 0.00 0.00 0.00 86 1022.3
20260506235830 10 0 0.0 6.4 0.00 0.00 0.00 86 1022.4
20260506235317 11 0 0.0 6.4 0.00 0.00 0.00 86 1022.4
20260506234804 10 0 0.0 3.2 0.00 0.00 0.00 86 1022.3
20260506234251 11 0 0.0 3.2 0.00 0.00 0.00 86 1022.4
20260506233738 11 246 0.0 3.2 0.00 0.00 0.00 86 1022.5
20260506233225 11 0 0.0 11.3 0.00 0.00 0.00 86 1022.5
20260506232712 11 0 0.0 11.3 0.00 0.00 0.00 86 1022.4
20260506232159 11 291 8.0 11.3 0.00 0.00 0.00 85 1022.5
20260506231646 11 306 0.0 11.3 0.00 0.00 0.00 86 1022.5
20260506231133 10 280 6.4 11.3 0.00 0.00 0.00 85 1022.5
20260506230107 11 298 9.7 11.3 0.00 0.00 0.00 85 1022.6
20260506225554 11 299 1.6 11.3 0.00 0.00 0.00 85 1022.6
20260506225041 11 289 8.0 11.3 0.00 0.00 0.00 85 1022.6
20260506224528 11 284 9.7 11.3 0.00 0.00 0.00 85 1022.6
20260506224015 11 296 8.0 11.3 0.00 0.00 0.00 85 1022.7
20260506223502 11 291 8.0 12.9 0.00 0.00 0.00 85 1022.7
20260506222949 11 282 8.0 12.9 0.00 0.00 0.00 85 1022.8
20260506222436 11 309 8.0 12.9 0.00 0.00 0.00 85 1022.7
20260506221923 11 308 9.7 12.9 0.00 0.00 0.00 85 1022.7
20260506221410 11 312 9.7 11.3 0.00 0.00 0.00 85 1022.7
20260506220857 11 285 6.4 12.9 0.00 0.00 0.00 85 1022.8
20260506220344 11 295 4.8 12.9 0.00 0.00 0.00 85 1022.8
20260506215318 11 261 3.2 12.9 0.00 0.00 0.00 85 1022.7
20260506214805 11 273 0.0 12.9 0.00 0.00 0.00 85 1022.6
20260506214251 11 305 4.8 12.9 0.00 0.00 0.00 85 1022.7
20260506213739 11 0 0.0 11.3 0.00 0.00 0.00 86 1022.7
20260506213225 11 266 0.0 11.3 0.00 0.00 0.00 86 1022.7
20260506212713 11 278 6.4 11.3 0.00 0.00 0.00 86 1022.7
20260506212200 11 291 4.8 9.7 0.00 0.00 0.00 86 1022.7
20260506211648 11 291 4.8 11.3 0.00 0.00 0.00 86 1022.6
20260506211133 11 278 0.0 11.3 0.00 0.00 0.00 86 1022.7
20260506210621 11 322 6.4 11.3 0.00 0.00 0.00 86 1022.6
20260506210108 11 284 0.0 9.7 0.00 0.00 0.00 86 1022.6
20260506205555 11 295 8.0 9.7 0.00 0.00 0.00 86 1022.6
20260506205041 11 0 0.0 9.7 0.00 0.00 0.00 86 1022.6
20260506204528 11 253 3.2 9.7 0.00 0.00 0.00 86 1022.6
20260506204015 11 264 1.6 12.9 0.00 0.00 0.00 87 1022.6
20260506203503 11 0 0.0 12.9 0.00 0.00 0.00 86 1022.6
20260506202949 11 252 1.6 12.9 0.00 0.00 0.00 87 1022.5
20260506201924 11 250 3.2 11.3 0.00 0.00 0.00 87 1022.4
20260506201410 11 273 6.4 11.3 0.00 0.00 0.00 87 1022.4
20260506200857 11 0 0.0 9.7 0.00 0.00 0.00 87 1022.5
20260506200345 11 0 3.2 3.2 0.00 0.00 0.00 87 1022.6
20260506195831 11 319 6.4 12.9 0.00 0.00 0.00 87 1022.6
20260506195319 11 245 9.7 12.9 0.00 0.00 0.00 87 1022.6
20260506194805 11 299 4.8 12.9 0.00 0.00 0.00 87 1022.4
20260506194252 11 306 6.4 11.3 0.00 0.00 0.00 86 1022.6
20260506193740 11 302 1.6 11.3 0.00 0.00 0.00 86 1022.5
20260506193226 11 295 4.8 11.3 0.00 0.00 0.00 87 1022.5
20260506192714 11 267 0.0 11.3 0.00 0.00 0.00 87 1022.5
20260506192200 11 284 1.6 11.3 0.00 0.00 0.00 87 1022.5
20260506191648 11 268 1.6 12.9 0.00 0.00 0.00 87 1022.5
20260506191134 11 246 3.2 12.9 0.00 0.00 0.00 87 1022.5
20260506190621 11 294 0.0 12.9 0.00 0.00 0.00 87 1022.4
20260506190108 11 231 1.6 9.7 0.00 0.00 0.00 87 1022.4
20260506185555 11 253 3.2 9.7 0.00 0.00 0.00 87 1022.4
20260506185042 11 240 1.6 11.3 0.00 0.00 0.00 87 1022.4
20260506184529 11 257 0.0 11.3 0.00 0.00 0.00 87 1022.3
20260506184016 11 229 3.2 11.3 0.00 0.00 0.00 87 1022.2
20260506183503 11 264 0.0 9.7 0.00 0.00 0.00 87 1022.3
20260506182950 11 0 0.0 9.7 0.00 0.00 0.00 87 1022.3
20260506182437 10 0 0.0 9.7 0.00 0.00 0.00 87 1022.3
20260506181924 10 291 1.6 9.7 0.00 0.00 0.00 87 1022.3
20260506180346 10 0 4.8 9.7 0.00 0.00 0.00 87 1022.2
20260506175832 10 0 0.0 9.7 0.00 0.00 0.00 87 1022.2
20260506175319 11 0 0.0 8.0 0.00 0.00 0.00 87 1022.1
20260506174806 11 0 0.0 0.0 0.00 0.00 0.00 87 1022.1
20260506174253 11 309 0.0 9.7 0.00 0.00 0.00 87 1022.1
20260506173740 11 0 0.0 9.7 0.00 0.00 0.00 87 1022.0
20260506173227 11 298 1.6 9.7 0.00 0.00 0.00 87 1022.0
20260506172714 11 312 0.0 8.0 0.00 0.00 0.00 87 1021.9
20260506172201 11 295 0.0 4.8 0.00 0.00 0.00 87 1021.9
20260506171136 11 0 0.0 0.0 0.00 0.00 0.00 87 1021.9
20260506170622 10 0 0.0 9.7 0.00 0.00 0.00 87 1021.9
20260506170109 10 259 0.0 9.7 0.00 0.00 0.00 87 1021.9
20260506165043 11 0 0.0 0.0 0.00 0.00 0.00 87 1022.0
20260506164530 10 0 0.0 0.0 0.00 0.00 0.00 87 1021.9
20260506164021 11 0 0.0 9.7 0.00 0.00 0.00 87 1021.8
20260506163504 10 0 0.0 9.7 0.00 0.00 0.00 87 1021.8
20260506162951 10 270 6.4 9.7 0.00 0.00 0.00 87 1021.6
20260506162439 10 277 4.8 9.7 0.00 0.00 0.00 87 1021.7
20260506161925 10 0 0.0 9.7 0.00 0.00 0.00 87 1021.5
20260506161412 11 0 0.0 9.7 0.00 0.00 0.00 87 1021.3
20260506160859 10 0 0.0 4.8 0.00 0.00 0.00 87 1021.3
20260506160346 11 0 0.0 4.8 0.00 0.00 0.00 87 1021.2
20260506155833 11 0 0.0 0.0 0.00 0.00 0.00 87 1021.1
20260506155320 11 0 0.0 0.0 0.00 0.00 0.00 87 1021.0
20260506154807 10 0 0.0 8.0 0.00 0.00 0.00 87 1021.0
20260506154254 10 0 0.0 8.0 0.00 0.00 0.00 87 1021.0
20260506153741 10 310 0.0 8.0 0.00 0.00 0.00 87 1021.2
20260506153228 11 0 0.0 0.0 0.00 0.00 0.00 87 1021.0
20260506152715 10 0 0.0 0.0 0.00 0.00 0.00 87 1020.7
20260506152202 10 0 0.0 0.0 0.00 0.00 0.00 87 1020.8
20260506151651 11 0 0.0 0.0 0.00 0.00 0.00 87 1020.9
20260506151136 10 0 0.0 0.0 0.00 0.00 0.00 88 1021.0
20260506150624 10 0 0.0 0.0 0.00 0.00 0.00 88 1021.0
20260506150110 10 0 0.0 0.0 0.00 0.00 0.00 88 1021.1
20260506145558 10 0 0.0 0.0 0.00 0.00 0.00 87 1021.3
20260506145044 10 0 0.0 0.0 0.00 0.00 0.00 87 1021.3
20260506144531 10 0 0.0 0.0 0.00 0.00 0.00 88 1021.0
20260506144019 10 0 0.0 0.0 0.00 0.00 0.00 88 1021.2
20260506143505 10 0 0.0 0.0 0.00 0.00 0.00 88 1021.2
20260506142952 10 0 0.0 0.0 0.00 0.00 0.00 88 1021.2
20260506142439 10 0 0.0 0.0 0.00 0.00 0.00 88 1021.1
20260506141926 10 0 0.0 0.0 0.00 0.00 0.00 88 1020.9
20260506141413 10 0 0.0 0.0 0.00 0.00 0.00 88 1020.8
20260506140900 10 0 0.0 0.0 0.00 0.00 0.00 88 1020.6
20260506140347 10 0 0.0 0.0 0.00 0.00 0.00 87 1020.7
20260506135834 10 0 0.0 0.0 0.00 0.00 0.00 87 1020.6
20260506135321 10 0 0.0 0.0 0.00 0.00 0.00 87 1020.5
20260506134809 10 0 0.0 0.0 0.00 0.00 0.00 87 1020.4
20260506134256 10 0 0.0 0.0 0.00 0.00 0.00 87 1020.5
20260506133742 10 0 0.0 0.0 0.00 0.00 0.00 87 1020.5
20260506133229 10 0 0.0 0.0 0.00 0.00 0.00 87 1020.5
20260506132203 10 0 0.0 0.0 0.00 0.00 0.00 87 1020.3
20260506131650 10 0 0.0 0.0 0.00 0.00 0.00 87 1020.2
20260506131138 10 0 0.0 0.0 0.00 0.00 0.00 87 1020.1
20260506130624 10 0 0.0 0.0 0.00 0.00 0.00 87 1020.2
20260506130112 10 0 0.0 0.0 0.00 0.00 0.00 87 1020.1
20260506125558 10 0 0.0 0.0 0.00 0.00 0.00 87 1020.1
20260506125045 10 0 0.0 0.0 0.00 0.00 0.00 87 1020.0
20260506124532 10 0 0.0 0.0 0.00 0.00 0.00 87 1019.9
20260506124019 10 0 0.0 0.0 0.00 0.00 0.00 87 1020.0
20260506123506 10 0 0.0 0.0 0.00 0.00 0.00 87 1019.9
20260506122953 10 0 0.0 0.0 0.00 0.00 0.00 87 1019.9
20260506122440 10 0 0.0 0.0 0.00 0.00 0.00 87 1019.9
20260506121927 10 0 0.0 0.0 0.00 0.00 0.00 87 1019.8
20260506121414 10 0 0.0 0.0 0.00 0.00 0.00 87 1019.8
20260506120901 10 0 0.0 0.0 0.00 0.00 0.00 87 1020.0
20260506120349 10 0 0.0 0.0 0.00 0.00 0.00 87 1020.1
20260506115323 10 0 0.0 0.0 0.00 0.00 0.00 87 1019.9
20260506114809 10 0 0.0 0.0 0.00 0.00 0.00 87 1019.8
20260506114256 10 0 0.0 0.0 0.00 0.00 0.00 87 1019.8
20260506113743 10 0 0.0 0.0 0.00 0.00 0.00 87 1019.8
20260506113230 10 0 0.0 0.0 0.00 0.00 0.00 87 1019.8
20260506112717 10 0 0.0 0.0 0.00 0.00 0.00 87 1019.7
20260506112204 10 0 0.0 0.0 0.00 0.00 0.00 87 1019.7
20260506111651 10 0 0.0 9.7 0.00 0.00 0.00 87 1019.6
20260506111138 10 0 0.0 9.7 0.00 0.00 0.00 87 1019.6
20260506110625 10 284 0.0 9.7 0.00 0.00 0.00 87 1019.6
20260506110112 10 0 0.0 0.0 0.00 0.00 0.00 87 1019.6
20260506105559 10 0 0.0 0.0 0.00 0.00 0.00 87 1019.6
20260506105046 10 0 0.0 9.7 0.00 0.00 0.00 87 1019.5
20260506104533 10 0 0.0 9.7 0.00 0.00 0.00 87 1019.4
20260506103507 10 0 0.0 0.0 0.00 0.00 0.00 87 1019.2
20260506102954 10 0 0.0 0.0 0.00 0.00 0.00 87 1019.1
20260506102441 10 0 0.0 0.0 0.00 0.00 0.00 87 1018.9
20260506101928 10 0 0.0 0.0 0.00 0.00 0.00 88 1019.0
20260506101415 10 0 0.0 0.0 0.00 0.00 0.00 88 1019.0
20260506100902 10 0 0.0 0.0 0.00 0.00 0.00 88 1018.9
20260506100349 10 0 0.0 0.0 0.00 0.00 0.00 88 1018.9
20260506095836 10 0 0.0 0.0 0.00 0.00 0.00 88 1018.9
20260506095323 10 0 0.0 0.0 0.00 0.00 0.00 88 1018.9
20260506094810 11 0 0.0 0.0 0.00 0.00 0.00 88 1018.8
20260506093744 10 0 0.0 0.0 0.00 0.00 0.00 88 1018.8
20260506092718 10 0 0.0 0.0 0.00 0.00 0.00 88 1018.7
20260506092205 11 0 0.0 0.0 0.00 0.00 0.00 88 1018.6
20260506091652 11 0 0.0 0.0 0.00 0.00 0.00 88 1018.6
20260506091139 11 0 0.0 0.0 0.00 0.00 0.00 88 1018.6
20260506090626 11 0 0.0 0.0 0.00 0.00 0.00 88 1018.5
20260506090113 11 0 0.0 0.0 0.00 0.00 0.00 88 1018.5
20260506085559 11 0 0.0 0.0 0.00 0.00 0.00 88 1018.6
20260506085046 11 0 0.0 0.0 0.00 0.00 0.00 88 1018.5
20260506084533 11 0 0.0 0.0 0.00 0.00 0.00 88 1018.5
20260506084022 11 0 0.0 0.0 0.00 0.00 0.00 88 1018.4
20260506083507 11 0 0.0 0.0 0.00 0.00 0.00 88 1018.4
20260506082954 11 0 0.0 0.0 0.00 0.00 0.00 88 1018.3
20260506082441 11 0 0.0 0.0 0.00 0.00 0.00 88 1018.3
20260506081928 11 0 0.0 0.0 0.00 0.00 0.00 88 1018.2
20260506081415 11 0 0.0 8.0 0.00 0.00 0.00 88 1018.1
20260506080903 11 0 0.0 8.0 0.00 0.00 0.00 88 1018.0
20260506080349 11 0 1.6 8.0 0.00 0.00 0.00 88 1018.1
20260506072718 11 0 0.0 0.0 0.00 0.00 0.00 88 1017.7
20260506072205 11 0 0.0 0.0 0.00 0.00 0.00 88 1017.7
20260506071652 11 0 0.0 0.0 0.00 0.00 0.00 88 1017.6
20260506071140 11 0 0.0 0.0 0.00 0.00 0.00 88 1017.6
20260506070626 11 0 0.0 0.0 0.00 0.00 0.00 88 1017.6
20260506070200 11 0 0.0 0.0 0.00 0.00 0.00 87 1017.5
20260506070113 11 0 0.0 0.0 0.00 0.00 0.00 87 1017.5
20260506062442 11 0 0.0 0.0 0.00 0.00 0.00 87 1017.6
20260506061929 11 0 0.0 0.0 0.00 0.00 0.00 87 1017.5